Location: Lafig�re
(44.4503°N, 4.0357°E)
Time: 08:17:59
(UTC+00:00)

Cosmos 1092 Rocket - Pass Details

Date: 28 January 2021
Orbit: 954 x 994 km, 83.0° (Epoch: 08 March)

Event Time Altitude Azimuth Distance (km) Brightness Sun altitude
Rises 03:10:35 0° 6° (N) 3,646 7.2 -41.9°
Reaches altitude 10° 03:14:25 10° 30° (NNE) 2,699 6.7 -41.3°
Maximum altitude 03:17:45 15° 63° (ENE) 2,364 6.6 -40.7°
Drops below altitude 10° 03:21:05 10° 96° (E) 2,701 6.9 -40.1°
Sets 03:24:53 0° 119° (ESE) 3,650 7.5 -39.5°
